Theta_e
326 327 328 328 328 327 326 326 326 326 326 324 320 316 314 311 310 308 304 299 295 292
328 327 328 329 329 329 327 325 323 323 320 314 311 311 309 308 303 301 298 296 292 291
329 329 329 328 328 328 327 323 320 320 315 310 309 307 304 300 299 298 296 293 291 289
327 328 328 328 328 328 325 322 319 315 310 308 305 304 300 297 296 295 293 292 290 289
323 323 325 326 327 324 324 318 315 310 307 304 303 301 298 296 295 293 290 290 288 287
317 319 321 322 320 316 312 311 309 308 304 302 301 298 297 295 293 291 290 289 288 287
311 314 317 318 314 310 307 306 304 305 303 302 299 297 295 293 291 290 290 288 287 286
308 312 311 309 306 303 301 303 302 300 299 298 296 295 293 291 290 289 288 287 286 286
303 301 301 298 296 295 294 294 294 292 292 292 293 293 292 290 288 287 287 286 284 284
292 292 293 293 292 291 291 290 290 289 288 288 288 292 292 290 287 286 286 285 284 283
290 289 287 288 289 288 288 288 287 287 287 287 286 292 291 289 286 286 285 285 284 283
288 285 287 286 286 286 286 285 285 285 285 285 287 291 290 287 285 284 284 284 284 283
286 286 287 286 285 283 284 284 284 284 285 285 286 290 289 287 285 284 283 282 282 283
283 284 286 285 283 284 284 283 283 284 285 286 287 288 289 287 284 283 281 281 280 282
Wind_Speed
18 12 12 14 11 11 11 11 13 13 11 10 11 10 9 6 5 6 5 7 5 4
16 18 15 16 12 10 11 9 11 11 10 8 6 8 9 8 8 7 5 6 6 5
16 16 16 12 14 14 12 12 13 13 11 11 10 10 9 6 7 11 7 5 7 5
14 16 14 15 13 14 10 13 14 14 13 12 12 12 11 10 9 10 10 8 8 7
9 9 11 13 13 8 11 11 12 12 11 11 12 13 13 13 13 13 13 11 10 9
8 8 11 11 8 7 7 9 9 10 11 12 13 13 11 13 14 14 12 14 12 11
6 6 6 5 5 6 6 9 9 11 10 12 12 13 12 12 11 11 12 10 11 12
6 6 6 6 6 5 6 6 7 8 8 8 10 9 13 15 13 13 12 9 8 10
6 6 6 6 5 6 5 6 6 7 8 10 8 12 14 10 12 11 13 12 9 7
3 3 5 7 7 6 6 5 5 6 7 7 5 15 15 15 10 8 9 11 11 8
4 4 3 3 4 5 5 6 5 5 5 5 4 16 15 12 9 7 6 6 8 9
3 3 4 2 4 3 5 5 6 6 8 8 8 17 17 14 7 6 8 6 7 9
5 5 6 6 5 2 1 2 3 4 6 8 8 17 20 16 8 9 7 5 6 12
4 4 4 4 2 4 4 4 3 4 4 7 8 12 20 16 8 7 6 6 5 5
Wind_Direction
213 211 208 204 200 200 194 195 196 200 200 203 180 167 163 157 156 152 150 152 145 137
210 213 214 212 206 200 195 191 189 190 185 164 158 154 155 166 154 144 148 149 138 130
212 214 217 214 213 209 195 181 180 186 176 166 163 161 154 154 157 151 148 145 141 137
217 214 210 214 213 212 191 185 181 177 172 173 169 168 162 158 162 154 151 148 152 155
219 216 213 217 220 202 190 179 177 169 173 174 177 174 167 166 171 165 164 163 155 160
220 203 209 208 196 182 161 165 158 162 174 176 182 178 179 174 171 162 177 165 165 162
218 209 211 195 156 147 148 154 164 173 184 186 185 180 167 163 181 165 161 165 164 160
201 164 131 140 146 149 166 182 173 168 170 179 178 184 182 168 171 159 155 160 155 162
156 129 130 129 141 151 161 158 156 170 172 175 192 176 166 173 157 168 160 162 147 156
121 139 163 157 156 170 173 154 168 166 163 177 170 171 166 155 145 161 166 165 157 146
174 174 152 157 161 149 148 167 165 166 170 148 163 165 157 151 131 156 152 163 159 152
168 137 146 168 180 187 153 158 174 164 160 164 161 166 157 150 139 166 147 142 153 154
176 175 179 168 155 104 37 77 125 140 152 147 163 173 168 160 153 161 150 126 146 155
153 159 145 128 104 118 103 101 120 126 139 144 161 177 176 166 154 159 147 150 169 161